Location: Unspecified
(43.4680°N, 87.1740°E)
Time: 05:22:32
(UTC+00:00)

Cosmos 2278 Rocket - Pass Details

Date: 17 April 2021
Orbit: 843 x 844 km, 71.0° (Epoch: 17 May)

Event Time Altitude Azimuth Distance (km) Brightness Sun altitude
Exits shadow 21:07:28 42° 268° (W) 1,191 2.6 -22.5°
Maximum altitude 21:08:34 47° 301° (WNW) 1,105 2.6 -22.3°
Drops below altitude 10° 21:14:02 10° 15° (NNE) 2,471 5.4 -21.6°
Sets 21:16:36 0° 21° (NNE) 3,409 6.4 -21.2°
